Time,TemperatureF,DewpointF,PressureIn,WindDirection,WindDirectionDegrees,WindSpeedMPH,WindSpeedGustMPH,Humidity,HourlyPrecipIn,Conditions,Clouds,dailyrainin,SoftwareType,DateUTC
2013-08-18 00:00:00,75.6,49.6,29.90,WNW,284,1.0,1.0,40,0.00,,,0.00,Wunderground v.1.15,2013-08-18 06:00:00,
2013-08-18 00:10:00,75.0,50.3,29.91,NW,309,0.0,0.0,42,0.00,,,0.00,Wunderground v.1.15,2013-08-18 06:10:00,
2013-08-18 00:20:00,74.3,49.7,29.90,NW,309,0.0,0.0,42,0.00,,,0.00,Wunderground v.1.15,2013-08-18 06:20:00,
2013-08-18 00:30:00,74.1,50.2,29.90,NNW,332,0.0,0.0,43,0.00,,,0.00,Wunderground v.1.15,2013-08-18 06:30:00,
2013-08-18 00:35:00,73.9,50.6,29.90,NNW,331,0.0,0.0,44,0.00,,,0.00,Wunderground v.1.15,2013-08-18 06:35:00,
2013-08-18 00:45:00,73.1,51.1,29.90,NNW,332,0.0,0.0,46,0.00,,,0.00,Wunderground v.1.15,2013-08-18 06:45:00,
2013-08-18 00:55:00,72.6,51.2,29.90,NNW,330,0.0,0.0,47,0.00,,,0.00,Wunderground v.1.15,2013-08-18 06:55:00,
2013-08-18 01:00:00,72.5,51.7,29.90,NNW,333,0.0,0.0,48,0.00,,,0.00,Wunderground v.1.15,2013-08-18 07:00:00,
2013-08-18 01:10:00,72.0,51.8,29.90,NNW,333,0.0,0.0,49,0.00,,,0.00,Wunderground v.1.15,2013-08-18 07:10:00,
2013-08-18 01:15:00,71.9,51.7,29.89,NNE,25,0.0,0.0,49,0.00,,,0.00,Wunderground v.1.15,2013-08-18 07:15:00,
2013-08-18 01:25:00,72.3,52.1,29.89,NE,55,0.0,0.0,49,0.00,,,0.00,Wunderground v.1.15,2013-08-18 07:25:00,
2013-08-18 01:35:00,72.5,51.7,29.88,ENE,58,0.0,0.0,48,0.00,,,0.00,Wunderground v.1.15,2013-08-18 07:35:00,
2013-08-18 01:45:00,72.3,52.6,29.88,NE,51,0.0,0.0,50,0.00,,,0.00,Wunderground v.1.15,2013-08-18 07:45:00,
2013-08-18 01:55:00,72.3,52.1,29.88,NNE,29,0.0,1.0,49,0.00,,,0.00,Wunderground v.1.15,2013-08-18 07:55:00,
2013-08-18 02:00:00,72.5,51.7,29.88,NNE,33,1.0,2.0,48,0.00,,,0.00,Wunderground v.1.15,2013-08-18 08:00:00,
2013-08-18 02:10:00,72.6,51.8,29.88,NNE,23,1.0,1.0,48,0.00,,,0.00,Wunderground v.1.15,2013-08-18 08:10:00,
2013-08-18 02:20:00,72.3,51.5,29.89,NE,49,0.0,0.0,48,0.00,,,0.00,Wunderground v.1.15,2013-08-18 08:20:00,
2013-08-18 02:30:00,72.2,50.8,29.89,North,360,0.0,0.0,47,0.00,,,0.00,Wunderground v.1.15,2013-08-18 08:30:00,
2013-08-18 02:40:00,71.8,50.5,29.89,West,276,0.0,0.0,47,0.00,,,0.00,Wunderground v.1.15,2013-08-18 08:40:00,
2013-08-18 02:50:00,71.5,50.2,29.89,WSW,248,0.0,0.0,47,0.00,,,0.00,Wunderground v.1.15,2013-08-18 08:50:00,
2013-08-18 03:00:00,71.4,50.7,29.89,WSW,243,0.0,0.0,48,0.00,,,0.00,Wunderground v.1.15,2013-08-18 09:00:00,
2013-08-18 03:10:00,71.2,49.9,29.89,WSW,238,0.0,0.0,47,0.00,,,0.00,Wunderground v.1.15,2013-08-18 09:10:00,
2013-08-18 03:15:00,70.9,50.2,29.89,SW,236,0.0,0.0,48,0.00,,,0.00,Wunderground v.1.15,2013-08-18 09:15:00,
2013-08-18 03:25:00,70.9,49.7,29.89,WSW,255,0.0,0.0,47,0.00,,,0.00,Wunderground v.1.15,2013-08-18 09:25:00,
2013-08-18 03:35:00,70.2,49.6,29.89,WSW,237,0.0,0.0,48,0.00,,,0.00,Wunderground v.1.15,2013-08-18 09:35:00,
2013-08-18 03:45:00,70.7,49.5,29.90,WSW,252,0.0,0.0,47,0.00,,,0.00,Wunderground v.1.15,2013-08-18 09:45:00,
2013-08-18 03:55:00,70.5,49.9,29.90,West,269,0.0,0.0,48,0.00,,,0.00,Wunderground v.1.15,2013-08-18 09:55:00,
2013-08-18 04:00:00,70.2,50.1,29.90,WSW,256,0.0,0.0,49,0.00,,,0.00,Wunderground v.1.15,2013-08-18 10:00:00,
2013-08-18 04:10:00,69.5,50.6,29.90,SSW,210,0.0,1.0,51,0.00,,,0.00,Wunderground v.1.15,2013-08-18 10:10:00,
2013-08-18 04:20:00,69.1,51.2,29.90,WSW,252,0.0,1.0,53,0.00,,,0.00,Wunderground v.1.15,2013-08-18 10:20:00,
2013-08-18 04:30:00,68.5,51.7,29.90,WSW,243,0.0,0.0,55,0.00,,,0.00,Wunderground v.1.15,2013-08-18 10:30:00,
2013-08-18 04:35:00,68.5,51.7,29.90,SSW,212,0.0,0.0,55,0.00,,,0.00,Wunderground v.1.15,2013-08-18 10:35:00,
2013-08-18 04:40:00,68.7,51.9,29.91,SE,141,0.0,0.0,55,0.00,,,0.00,Wunderground v.1.15,2013-08-18 10:40:00,
2013-08-18 04:50:00,69.4,52.0,29.91,SSE,148,1.0,1.0,54,0.00,,,0.00,Wunderground v.1.15,2013-08-18 10:50:00,
2013-08-18 05:00:00,69.7,51.8,29.91,SSE,155,1.0,1.0,53,0.00,,,0.00,Wunderground v.1.15,2013-08-18 11:00:00,
2013-08-18 05:10:00,69.8,51.9,29.91,SSE,152,0.0,0.0,53,0.00,,,0.00,Wunderground v.1.15,2013-08-18 11:10:00,
2013-08-18 05:15:00,69.6,52.2,29.91,SSE,152,0.0,0.0,54,0.00,,,0.00,Wunderground v.1.15,2013-08-18 11:15:00,
2013-08-18 05:25:00,69.4,52.0,29.91,ESE,123,0.0,0.0,54,0.00,,,0.00,Wunderground v.1.15,2013-08-18 11:25:00,
2013-08-18 05:35:00,68.9,51.6,29.91,ESE,123,0.0,0.0,54,0.00,,,0.00,Wunderground v.1.15,2013-08-18 11:35:00,
2013-08-18 05:45:00,68.6,51.8,29.91,East,96,0.0,0.0,55,0.00,,,0.00,Wunderground v.1.15,2013-08-18 11:45:00,
2013-08-18 05:55:00,68.4,51.6,29.91,East,98,0.0,0.0,55,0.00,,,0.00,Wunderground v.1.15,2013-08-18 11:55:00,
2013-08-18 06:00:00,68.3,52.0,29.91,East,98,0.0,0.0,56,0.00,,,0.00,Wunderground v.1.15,2013-08-18 12:00:00,
2013-08-18 06:10:00,68.0,51.7,29.91,East,100,0.0,0.0,56,0.00,,,0.00,Wunderground v.1.15,2013-08-18 12:10:00,
2013-08-18 06:20:00,68.3,52.5,29.91,ESE,116,0.0,0.0,57,0.00,,,0.00,Wunderground v.1.15,2013-08-18 12:20:00,
2013-08-18 06:30:00,68.2,52.4,29.91,ESE,115,0.0,0.0,57,0.00,,,0.00,Wunderground v.1.15,2013-08-18 12:30:00,
2013-08-18 06:40:00,68.5,52.2,29.92,East,101,0.0,0.0,56,0.00,,,0.00,Wunderground v.1.15,2013-08-18 12:40:00,
2013-08-18 06:50:00,68.7,51.4,29.92,East,100,0.0,0.0,54,0.00,,,0.00,Wunderground v.1.15,2013-08-18 12:50:00,
2013-08-18 07:00:00,68.9,51.1,29.92,East,98,0.0,0.0,53,0.00,,,0.00,Wunderground v.1.15,2013-08-18 13:00:00,
2013-08-18 07:10:00,69.6,51.7,29.92,East,92,0.0,0.0,53,0.00,,,0.00,Wunderground v.1.15,2013-08-18 13:10:00,
2013-08-18 07:15:00,70.2,51.2,29.92,NNW,348,0.0,0.0,51,0.00,,,0.00,Wunderground v.1.15,2013-08-18 13:15:00,
2013-08-18 07:25:00,70.9,51.3,29.93,NNE,15,0.0,0.0,50,0.00,,,0.00,Wunderground v.1.15,2013-08-18 13:25:00,
2013-08-18 07:35:00,71.2,52.1,29.93,NNE,16,0.0,0.0,51,0.00,,,0.00,Wunderground v.1.15,2013-08-18 13:35:00,
2013-08-18 07:45:00,71.9,51.7,29.93,North,8,0.0,0.0,49,0.00,,,0.00,Wunderground v.1.15,2013-08-18 13:45:00,
2013-08-18 07:55:00,72.6,51.8,29.93,NE,56,0.0,0.0,48,0.00,,,0.00,Wunderground v.1.15,2013-08-18 13:55:00,
2013-08-18 08:00:00,72.9,51.5,29.93,NE,49,0.0,0.0,47,0.00,,,0.00,Wunderground v.1.15,2013-08-18 14:00:00,
2013-08-18 08:10:00,73.5,50.2,29.93,NNW,328,0.0,0.0,44,0.00,,,0.00,Wunderground v.1.15,2013-08-18 14:10:00,
2013-08-18 08:20:00,74.2,50.3,29.94,NNW,342,2.0,2.0,43,0.00,,,0.00,Wunderground v.1.15,2013-08-18 14:20:00,
2013-08-18 08:30:00,74.8,50.8,29.94,WNW,290,1.0,1.0,43,0.00,,,0.00,Wunderground v.1.15,2013-08-18 14:30:00,
2013-08-18 08:40:00,75.1,49.8,29.94,NW,321,2.0,3.0,41,0.00,,,0.00,Wunderground v.1.15,2013-08-18 14:40:00,
2013-08-18 08:50:00,75.5,50.1,29.94,NW,316,2.0,2.0,41,0.00,,,0.00,Wunderground v.1.15,2013-08-18 14:50:00,
2013-08-18 09:00:00,76.0,49.9,29.94,NW,304,1.0,2.0,40,0.00,,,0.00,Wunderground v.1.15,2013-08-18 15:00:00,
2013-08-18 09:10:00,76.0,49.9,29.94,NNW,328,2.0,2.0,40,0.00,,,0.00,Wunderground v.1.15,2013-08-18 15:10:00,
2013-08-18 09:15:00,76.1,50.7,29.94,NE,36,2.0,2.0,41,0.00,,,0.00,Wunderground v.1.15,2013-08-18 15:15:00,
2013-08-18 09:25:00,76.8,50.0,29.93,WNW,302,2.0,3.0,39,0.00,,,0.00,Wunderground v.1.15,2013-08-18 15:25:00,
2013-08-18 09:35:00,78.5,50.1,29.94,NW,318,1.0,3.0,37,0.00,,,0.00,Wunderground v.1.15,2013-08-18 15:35:00,
2013-08-18 09:45:00,79.0,49.8,29.94,NNW,341,2.0,2.0,36,0.00,,,0.00,Wunderground v.1.15,2013-08-18 15:45:00,
2013-08-18 09:50:00,79.5,50.2,29.94,NNW,335,2.0,2.0,36,0.00,,,0.00,Wunderground v.1.15,2013-08-18 15:50:00,
2013-08-18 10:00:00,80.0,49.1,29.94,NW,305,2.0,3.0,34,0.00,,,0.00,Wunderground v.1.15,2013-08-18 16:00:00,
2013-08-18 10:10:00,79.8,49.7,29.94,NW,322,2.0,2.0,35,0.00,,,0.00,Wunderground v.1.15,2013-08-18 16:10:00,
2013-08-18 10:20:00,80.8,50.6,29.94,NNE,20,2.0,2.0,35,0.00,,,0.00,Wunderground v.1.15,2013-08-18 16:20:00,
2013-08-18 10:30:00,81.4,48.7,29.94,NNW,346,2.0,5.0,32,0.00,,,0.00,Wunderground v.1.15,2013-08-18 16:30:00,
2013-08-18 10:40:00,81.2,48.5,29.94,NNE,19,3.0,5.0,32,0.00,,,0.00,Wunderground v.1.15,2013-08-18 16:40:00,
2013-08-18 10:50:00,81.6,48.9,29.93,NNE,32,3.0,3.0,32,0.00,,,0.00,Wunderground v.1.15,2013-08-18 16:50:00,
2013-08-18 11:00:00,81.8,49.9,29.93,NW,314,3.0,3.0,33,0.00,,,0.00,Wunderground v.1.15,2013-08-18 17:00:00,
2013-08-18 11:10:00,82.8,48.2,29.93,West,262,3.0,3.0,30,0.00,,,0.00,Wunderground v.1.15,2013-08-18 17:10:00,
2013-08-18 11:20:00,83.2,49.4,29.93,NNW,340,1.0,4.0,31,0.00,,,0.00,Wunderground v.1.15,2013-08-18 17:20:00,
2013-08-18 11:25:00,83.4,48.7,29.92,NNW,341,3.0,4.0,30,0.00,,,0.00,Wunderground v.1.15,2013-08-18 17:25:00,
2013-08-18 11:35:00,83.9,49.1,29.92,NW,307,2.0,4.0,30,0.00,,,0.00,Wunderground v.1.15,2013-08-18 17:35:00,
2013-08-18 11:45:00,84.9,49.1,29.92,NW,326,2.0,2.0,29,0.00,,,0.00,Wunderground v.1.15,2013-08-18 17:45:00,
2013-08-18 11:55:00,85.8,49.9,29.92,ESE,115,1.0,2.0,29,0.00,,,0.00,Wunderground v.1.15,2013-08-18 17:55:00,
2013-08-18 12:00:00,86.5,48.5,29.91,SSE,152,1.0,1.0,27,0.00,,,0.00,Wunderground v.1.15,2013-08-18 18:00:00,
2013-08-18 12:10:00,87.5,49.4,29.91,NNW,328,1.0,1.0,27,0.00,,,0.00,Wunderground v.1.15,2013-08-18 18:10:00,
2013-08-18 12:15:00,86.9,47.9,29.91,NW,326,2.0,2.0,26,0.00,,,0.00,Wunderground v.1.15,2013-08-18 18:15:00,
2013-08-18 12:25:00,86.9,48.9,29.90,SW,226,2.0,3.0,27,0.00,,,0.00,Wunderground v.1.15,2013-08-18 18:25:00,
2013-08-18 12:35:00,86.8,46.8,29.90,NNW,340,3.0,5.0,25,0.00,,,0.00,Wunderground v.1.15,2013-08-18 18:35:00,
2013-08-18 12:45:00,87.8,48.6,29.89,SSE,159,2.0,4.0,26,0.00,,,0.00,Wunderground v.1.15,2013-08-18 18:45:00,
2013-08-18 12:50:00,88.8,48.4,29.89,NNE,20,2.0,2.0,25,0.00,,,0.00,Wunderground v.1.15,2013-08-18 18:50:00,
2013-08-18 13:00:00,90.1,47.3,29.88,West,270,2.0,2.0,23,0.00,,,0.00,Wunderground v.1.15,2013-08-18 19:00:00,
2013-08-18 13:10:00,89.2,46.6,29.88,WNW,284,3.0,3.0,23,0.00,,,0.00,Wunderground v.1.15,2013-08-18 19:10:00,
2013-08-18 13:20:00,90.2,48.5,29.87,SE,132,2.0,4.0,24,0.00,,,0.00,Wunderground v.1.15,2013-08-18 19:20:00,
2013-08-18 13:30:00,90.7,47.8,29.87,WSW,241,3.0,3.0,23,0.00,,,0.00,Wunderground v.1.15,2013-08-18 19:30:00,
2013-08-18 13:35:00,91.2,48.2,29.86,SSW,193,2.0,3.0,23,0.00,,,0.00,Wunderground v.1.15,2013-08-18 19:35:00,
2013-08-18 13:45:00,90.4,47.6,29.86,North,360,3.0,5.0,23,0.00,,,0.00,Wunderground v.1.15,2013-08-18 19:45:00,
2013-08-18 13:55:00,89.6,48.0,29.86,NNE,32,3.0,3.0,24,0.00,,,0.00,Wunderground v.1.15,2013-08-18 19:55:00,
2013-08-18 14:00:00,90.0,48.4,29.85,SSE,149,3.0,3.0,24,0.00,,,0.00,Wunderground v.1.15,2013-08-18 20:00:00,
2013-08-18 14:10:00,91.1,48.1,29.85,SSW,201,3.0,4.0,23,0.00,,,0.00,Wunderground v.1.15,2013-08-18 20:10:00,
2013-08-18 14:20:00,90.9,48.0,29.84,South,181,4.0,4.0,23,0.00,,,0.00,Wunderground v.1.15,2013-08-18 20:20:00,
2013-08-18 14:30:00,91.1,47.0,29.84,NW,308,3.0,4.0,22,0.00,,,0.00,Wunderground v.1.15,2013-08-18 20:30:00,
2013-08-18 14:40:00,91.3,47.1,29.84,WSW,250,2.0,5.0,22,0.00,,,0.00,Wunderground v.1.15,2013-08-18 20:40:00,
2013-08-18 14:50:00,91.1,47.0,29.83,SW,222,3.0,3.0,22,0.00,,,0.00,Wunderground v.1.15,2013-08-18 20:50:00,
2013-08-18 14:55:00,91.6,46.1,29.83,SW,234,3.0,3.0,21,0.00,,,0.00,Wunderground v.1.15,2013-08-18 20:55:00,
2013-08-18 15:00:00,91.8,46.3,29.83,WNW,287,3.0,3.0,21,0.00,,,0.00,Wunderground v.1.15,2013-08-18 21:00:00,
2013-08-18 15:10:00,91.9,47.6,29.82,WSW,248,3.0,3.0,22,0.00,,,0.00,Wunderground v.1.15,2013-08-18 21:10:00,
2013-08-18 15:20:00,92.4,46.8,29.82,WSW,250,2.0,2.0,21,0.00,,,0.00,Wunderground v.1.15,2013-08-18 21:20:00,
2013-08-18 15:30:00,92.2,45.3,29.81,WSW,239,3.0,3.0,20,0.00,,,0.00,Wunderground v.1.15,2013-08-18 21:30:00,
2013-08-18 15:35:00,92.3,45.4,29.81,SSE,167,3.0,8.0,20,0.00,,,0.00,Wunderground v.1.15,2013-08-18 21:35:00,
2013-08-18 15:45:00,92.4,45.5,29.81,South,174,4.0,10.0,20,0.00,,,0.00,Wunderground v.1.15,2013-08-18 21:45:00,
2013-08-18 15:55:00,92.3,44.1,29.80,ESE,122,4.0,5.0,19,0.00,,,0.00,Wunderground v.1.15,2013-08-18 21:55:00,
2013-08-18 16:00:00,92.5,45.6,29.80,WSW,249,3.0,3.0,20,0.00,,,0.00,Wunderground v.1.15,2013-08-18 22:00:00,
2013-08-18 16:10:00,93.3,46.2,29.80,SSE,155,3.0,3.0,20,0.00,,,0.00,Wunderground v.1.15,2013-08-18 22:10:00,
2013-08-18 16:20:00,91.6,46.1,29.79,SE,143,4.0,4.0,21,0.00,,,0.00,Wunderground v.1.15,2013-08-18 22:20:00,
2013-08-18 16:30:00,93.2,46.2,29.78,North,353,1.0,3.0,20,0.00,,,0.00,Wunderground v.1.15,2013-08-18 22:30:00,
2013-08-18 16:35:00,92.3,45.4,29.78,South,172,2.0,3.0,20,0.00,,,0.00,Wunderground v.1.15,2013-08-18 22:35:00,
2013-08-18 16:45:00,91.5,43.4,29.78,NNE,19,1.0,6.0,19,0.00,,,0.00,Wunderground v.1.15,2013-08-18 22:45:00,
2013-08-18 16:55:00,90.6,44.0,29.78,SW,231,3.0,4.0,20,0.00,,,0.00,Wunderground v.1.15,2013-08-18 22:55:00,
2013-08-18 17:00:00,90.3,43.8,29.78,SW,219,3.0,3.0,20,0.00,,,0.00,Wunderground v.1.15,2013-08-18 23:00:00,
2013-08-18 17:10:00,90.1,43.6,29.78,SSW,201,2.0,3.0,20,0.00,,,0.00,Wunderground v.1.15,2013-08-18 23:10:00,
2013-08-18 17:20:00,89.7,43.3,29.78,South,188,4.0,4.0,20,0.00,,,0.00,Wunderground v.1.15,2013-08-18 23:20:00,
2013-08-18 17:30:00,89.4,44.3,29.78,ESE,114,3.0,4.0,21,0.00,,,0.00,Wunderground v.1.15,2013-08-18 23:30:00,
2013-08-18 17:35:00,89.3,44.2,29.78,South,179,4.0,4.0,21,0.00,,,0.00,Wunderground v.1.15,2013-08-18 23:35:00,
2013-08-18 17:45:00,89.6,44.5,29.78,SSW,210,3.0,4.0,21,0.00,,,0.00,Wunderground v.1.15,2013-08-18 23:45:00,
2013-08-18 17:55:00,89.3,45.5,29.78,NW,322,2.0,3.0,22,0.00,,,0.00,Wunderground v.1.15,2013-08-18 23:55:00,
2013-08-18 18:00:00,89.0,45.2,29.78,NW,323,3.0,4.0,22,0.00,,,0.00,Wunderground v.1.15,2013-08-19 00:00:00,
2013-08-18 18:10:00,89.1,46.5,29.78,NW,310,4.0,5.0,23,0.00,,,0.00,Wunderground v.1.15,2013-08-19 00:10:00,
2013-08-18 18:20:00,88.4,45.9,29.78,NNE,18,4.0,4.0,23,0.00,,,0.00,Wunderground v.1.15,2013-08-19 00:20:00,
2013-08-18 18:30:00,88.0,45.6,29.78,NNW,339,3.0,3.0,23,0.00,,,0.00,Wunderground v.1.15,2013-08-19 00:30:00,
2013-08-18 18:40:00,87.7,46.4,29.78,NNW,338,1.0,1.0,24,0.00,,,0.00,Wunderground v.1.15,2013-08-19 00:40:00,
2013-08-18 18:45:00,87.5,46.3,29.78,NNE,33,1.0,2.0,24,0.00,,,0.00,Wunderground v.1.15,2013-08-19 00:45:00,
2013-08-18 18:55:00,87.1,45.9,29.78,NE,47,1.0,1.0,24,0.00,,,0.00,Wunderground v.1.15,2013-08-19 00:55:00,
2013-08-18 19:00:00,87.0,45.8,29.78,North,1,1.0,1.0,24,0.00,,,0.00,Wunderground v.1.15,2013-08-19 01:00:00,
2013-08-18 19:10:00,86.8,45.7,29.79,North,359,2.0,2.0,24,0.00,,,0.00,Wunderground v.1.15,2013-08-19 01:10:00,
2013-08-18 19:20:00,86.6,46.6,29.79,North,1,2.0,2.0,25,0.00,,,0.00,Wunderground v.1.15,2013-08-19 01:20:00,
2013-08-18 19:30:00,86.3,46.3,29.79,NNW,329,1.0,1.0,25,0.00,,,0.00,Wunderground v.1.15,2013-08-19 01:30:00,
2013-08-18 19:35:00,86.0,46.1,29.79,NNW,335,0.0,1.0,25,0.00,,,0.00,Wunderground v.1.15,2013-08-19 01:35:00,
2013-08-18 19:45:00,85.5,46.7,29.80,SSE,166,0.0,1.0,26,0.00,,,0.00,Wunderground v.1.15,2013-08-19 01:45:00,
2013-08-18 19:55:00,85.3,46.5,29.81,SE,144,2.0,7.0,26,0.00,,,0.00,Wunderground v.1.15,2013-08-19 01:55:00,
2013-08-18 20:00:00,85.6,44.7,29.81,SSE,151,4.0,7.0,24,0.00,,,0.00,Wunderground v.1.15,2013-08-19 02:00:00,
2013-08-18 20:10:00,85.3,45.5,29.81,SW,231,5.0,5.0,25,0.00,,,0.00,Wunderground v.1.15,2013-08-19 02:10:00,
2013-08-18 20:20:00,84.8,45.1,29.82,SSW,194,3.0,4.0,25,0.00,,,0.00,Wunderground v.1.15,2013-08-19 02:20:00,
2013-08-18 20:30:00,84.1,46.5,29.82,SE,138,4.0,4.0,27,0.00,,,0.00,Wunderground v.1.15,2013-08-19 02:30:00,
2013-08-18 20:40:00,84.1,45.5,29.83,ESE,113,3.0,4.0,26,0.00,,,0.00,Wunderground v.1.15,2013-08-19 02:40:00,
2013-08-18 20:50:00,83.6,48.0,29.84,SE,141,6.0,6.0,29,0.00,,,0.00,Wunderground v.1.15,2013-08-19 02:50:00,
2013-08-18 21:00:00,82.8,47.3,29.84,East,85,4.0,4.0,29,0.00,,,0.00,Wunderground v.1.15,2013-08-19 03:00:00,
2013-08-18 21:10:00,82.5,47.0,29.85,ESE,112,2.0,2.0,29,0.00,,,0.00,Wunderground v.1.15,2013-08-19 03:10:00,
2013-08-18 21:20:00,82.3,47.8,29.85,ESE,103,2.0,3.0,30,0.00,,,0.00,Wunderground v.1.15,2013-08-19 03:20:00,
2013-08-18 21:30:00,82.2,47.7,29.86,SSE,155,3.0,3.0,30,0.00,,,0.00,Wunderground v.1.15,2013-08-19 03:30:00,
2013-08-18 21:40:00,82.0,47.5,29.86,ESE,112,2.0,2.0,30,0.00,,,0.00,Wunderground v.1.15,2013-08-19 03:40:00,
2013-08-18 21:50:00,81.8,47.3,29.87,ESE,114,1.0,1.0,30,0.00,,,0.00,Wunderground v.1.15,2013-08-19 03:50:00,
2013-08-18 22:00:00,81.8,47.3,29.87,ESE,118,1.0,1.0,30,0.00,,,0.00,Wunderground v.1.15,2013-08-19 04:00:00,
2013-08-18 22:05:00,81.8,47.3,29.87,SE,125,1.0,1.0,30,0.00,,,0.00,Wunderground v.1.15,2013-08-19 04:05:00,
2013-08-18 22:15:00,81.3,47.8,29.88,ESE,111,0.0,1.0,31,0.00,,,0.00,Wunderground v.1.15,2013-08-19 04:15:00,
2013-08-18 22:25:00,80.2,47.7,29.88,ESE,111,0.0,0.0,32,0.00,,,0.00,Wunderground v.1.15,2013-08-19 04:25:00,
2013-08-18 22:30:00,79.6,48.0,29.88,ESE,111,0.0,0.0,33,0.00,,,0.00,Wunderground v.1.15,2013-08-19 04:30:00,
2013-08-18 22:40:00,78.4,48.5,29.88,SE,124,0.0,0.0,35,0.00,,,0.00,Wunderground v.1.15,2013-08-19 04:40:00,
2013-08-18 22:45:00,78.6,47.9,29.88,SE,124,0.0,0.0,34,0.00,,,0.00,Wunderground v.1.15,2013-08-19 04:45:00,
2013-08-18 22:55:00,79.2,47.6,29.88,ESE,121,1.0,1.0,33,0.00,,,0.00,Wunderground v.1.15,2013-08-19 04:55:00,
2013-08-18 23:00:00,79.2,48.4,29.88,SE,136,1.0,1.0,34,0.00,,,0.00,Wunderground v.1.15,2013-08-19 05:00:00,
2013-08-18 23:10:00,79.0,48.2,29.88,ESE,118,1.0,1.0,34,0.00,,,0.00,Wunderground v.1.15,2013-08-19 05:10:00,
2013-08-18 23:15:00,78.8,48.1,29.88,SE,137,0.0,1.0,34,0.00,,,0.00,Wunderground v.1.15,2013-08-19 05:15:00,
2013-08-18 23:25:00,78.0,48.1,29.89,NW,322,0.0,2.0,35,0.00,,,0.00,Wunderground v.1.15,2013-08-19 05:25:00,
2013-08-18 23:30:00,78.0,48.9,29.89,NW,316,1.0,2.0,36,0.00,,,0.00,Wunderground v.1.15,2013-08-19 05:30:00,
2013-08-18 23:40:00,78.0,48.9,29.89,NW,317,0.0,0.0,36,0.00,,,0.00,Wunderground v.1.15,2013-08-19 05:40:00,
2013-08-18 23:50:00,77.2,48.9,29.89,SSE,156,0.0,0.0,37,0.00,,,0.00,Wunderground v.1.15,2013-08-19 05:50:00,